This is the latest recevied weather packets stored in our database for station/object YO8RXT-3. If no packets are shown the sender has not sent any weather packets the latest 10 day(s).
| Time | Temp. | Humidity | Pressure | Rain* | Wind** | Luminosity | Snow |
|---|---|---|---|---|---|---|---|
| 1777509303 | 7.22° C | 46% | 1024 hPa | - | - | - | - |
| 1777507503 | 7.22° C | 46% | 1024 hPa | - | - | - | - |
| 1777505702 | 6.11° C | 66% | 1024 hPa | - | - | - | - |
| 1777503902 | 6.11° C | 66% | 1024 hPa | - | - | - | - |
| 1777502103 | 7.22° C | 61% | 1024 hPa | - | - | - | - |
| 1777500304 | 7.22° C | 53% | 1024 hPa | - | - | - | - |
| 1777498503 | 7.78° C | 50% | 1024 hPa | - | - | - | - |
| 1777496703 | 7.78° C | 50% | 1024 hPa | - | - | - | - |
| 1777494902 | 8.89° C | 43% | 1024 hPa | - | - | - | - |
| 1777493103 | 8.89° C | 43% | 1023 hPa | - | - | - | - |
| 1777491302 | 10° C | 37% | 1023 hPa | - | - | - | - |
| 1777489502 | 10° C | 37% | 1023 hPa | - | - | - | - |
| 1777487702 | 10° C | 37% | 1023 hPa | - | - | - | - |
| 1777485904 | 10° C | 37% | 1023 hPa | - | - | - | - |
| 1777484103 | 10° C | - | - | - | - | - | - |
| 1777482303 | 10° C | 37% | 1022 hPa | - | - | - | - |
| 1777480503 | 11.11° C | 32% | 1022 hPa | - | - | - | - |
| 1777478703 | 11.11° C | 32% | 1022 hPa | - | - | - | - |
| 1777476903 | 11.11° C | 35% | 1022 hPa | - | - | - | - |
| 1777475103 | 11.11° C | 32% | 1022 hPa | - | - | - | - |
| 1777473303 | 11.11° C | 32% | 1022 hPa | - | - | - | - |
| 1777471502 | 12.22° C | 30% | 1022 hPa | - | - | - | - |
| 1777469703 | 12.22° C | 33% | 1022 hPa | - | - | - | - |
| 1777467903 | 12.22° C | 30% | 1022 hPa | - | - | - | - |
| 1777466102 | 12.22° C | 28% | 1022 hPa | - | - | - | - |
* Rain since midnight (hover to see other rain measurements)
** Current wind speed in m/s (hover to see current wind gust speed)